Погода Гышгы

Погода Гышгы : погода сейчас, прогноз погоды и архив. Всё, что Вы хотите узнать о погоде Гышгы!

Поиск расширенной информации на нашем сайте:

Другие новости

Новости СМИ2

Главная страница сайта

Новости сайта

03.07.2017

Напоминаем, что на нашем специализированном сайте Метеоцентр.Азия вы можете получить высокодетализированные автоматические прогнозы погоды по пунктам России, СНГ и мира в авиационном формате (включающие направление и скорость ветра, видимость, явления погоды, количество и форму облачности, нижнюю и верхнюю границу облачности).

Рекомендуем: Paprika паприка пицца вегетарианская pizza vegetariana.

Погода Гышгы - сегодня

Время (UTC), дата Ветер
(°,м/с) 
Видим.   Явления Облачность Т
(°С)
Тd
(°С)
f(%) Тe
(°С)
Pmin
(гПа)
dP
(гПа)
Po
(мм)
O2
(г/м3)
Тmin Tmax R s Состояние
почвы
21 13.08.18 тихо ()   4000 м    ясно 
+21.9 +4.6 32 +22  1006.9  703  261           
00 14.08.18 250 (З) 4000 м    ясно 
+19.2 +4.8 39 +21  1007.9  0.3  703  264           
03 14.08.18 240 (ЮЗ) 4000 м    ясно 
+19.5 +3.8 35 +21  1008.9  704  264           
06 14.08.18 070 (В) 4000 м    ясно 
+29.6 +5.5 22 +30  1007.2  0.7  704  255  +18.1         
09 14.08.18 010 (С) 4000 м    ясно 
+34.2 +5.8 17 +34  1004.5  -1.6  703  251           
12 14.08.18 040 (СВ) 4000 м    ясно 
+36 +4.8 14 +36  1002.4  -1.6  702  249           
15 14.08.18 010 (С) 4000 м    ясно 
+34 -1.2 11 +34  1003.1  0.2  702  252    +34.8  360    полностью
покрыта
пылью 
18 14.08.18 020 (С) 4000 м    ясно 
+29.9 +3.6 19 +30  1006.1  704  255    +36.5       
21 14.08.18 тихо ()   4000 м    ясно 
+23 +6.7 35 +23      750  278           
00 15.08.18 тихо ()   4000 м    ясно 
+18.4 +6.8 47 +18  1009.2  0.3  704  264           
03 15.08.18 230 (ЮЗ) 4000 м    ясно 
+20.2 +4 34 +20  1009.9  705  264  +18        полностью
покрыта
пылью 
06 15.08.18 060 (СВ) 4000 м    ясно 
+31.4 +6.2 21 +31  1007.7  0.5  705  254  +18         
09 15.08.18 040 (СВ) 4000 м    ясно 
+35.2 -0.7 10 +110      75  25           
12 15.08.18 030 (СВ) 4000 м    ясно 
+37 -0.7 9 +37    -2             
15 15.08.18 030 (СВ) 4000 м    ясно 
+34.8 -1.9 10 +35  1003.2  0.2  702  251    +26    670  мокрый или
старый снег
50-90% 
18 15.08.18 010 (С) 4000 м    ясно 
+30.4 +3.2 18 +30  1005.6  1.4  703  254    +37.5       
21 15.08.18 тихо ()   4000 м    ясно 
+24.2 +6.1 31 +24  1007.1  0.1  703  259           
00 16.08.18 040 (СВ) 4000 м    ясно 
+22.6 +7.4 38 +23  1007.8  0.3  704  261           
03 16.08.18 240 (ЮЗ) 4000 м    ясно 
+21.6 +5.6 35 +22  1009.9  1.6  705  262           
06 16.08.18 060 (СВ) 4000 м    ясно 
+32 +6.5 20 +32  1007.6  0.3  705  253    +26.4       
09 16.08.18 050 (СВ) 4000 м    ясно 
+36.2 +4.8 14 +36  1005.6  -1  704  250           
12 16.08.18 050 (СВ) 4000 м    ясно 
+37.5 +5.3 14 +38  1003.8  -1.5  703  248      320     
15 16.08.18 040 (СВ) 4000 м    ясно 
+35.5 +7.7 18 +36  1004  -0.1  703  249    +25.9    670  мокрый или
старый снег
50-90% 
18 16.08.18 020 (С) 4000 м    ясно 
+31.2 +8.9 25 +32  1006.7  1.5  704  253    +23.3       
21 16.08.18 050 (СВ) 4000 м    ясно 
+27.8 +9.8 32 +30  1006.4  -0.9  704  255           
Время (UTC), дата Ветер
(°,м/с) 
Видим.   Явления Облачность Т
(°С)
Тd
(°С)
f(%) Тe
(°С)
Pmin
(гПа)
dP
(гПа)
Po
(мм)
O2
(г/м3)
Тmin Tmax R s Состояние
почвы

Для получения пояснительной информации подведите курсор к названию столбца.

ПОГОДА Гышгы - архив

Всё, что Вы хотите узнать о погоде Гышгы - удобно и подробно!

Выберите нужную дату (начиная с 1 января 2015* года) и нажмите кнопку "Найти".
Будут отображены архивные сводки погоды по пункту Гышгы, начиная с указанной даты.


Отображать данные в формате CSV (для использования в таблицах Excel)


Внимание! Наш архив погоды предназначен исключительно для личного некоммерческого использования в познавательных целях. Если Вам необходимы официальные справки о состоянии погоды (для производственных, юридических, коммерческих и т.п. целей), обращайтесь в органы Росгидромета.

*Примечание: данная дата относится к архиву по метеостанциям СССР (Россия, СНГ, Балтия).
Архив по метеостанциям Зарубежной Европы и Азии (кроме Китая) хранится 10 дней, по другим регионам земного шара (Китай, Африка, Америка, Австралия, Океания) - 1 день.

Гышгы - район местоположения метеостанции


Название, широта, долгота, высота метеостанции:
Гышгы (Кушка) 35.3°ш. 62.3°д. 625 м над ур. моря [Туркменистан]

Дополнительная информация

В oтличие oт бoльшинства пoгoдных сайтoв мы публикуем пoдрoбную метеoинфoрмацию в детальнoм прoфессиoнальнoм фoрмате.

Характеристики температуры и влажнoсти вoздуха измеряются на высoте 2 м в тени вдали oт зданий и деревьев.
Скoрoсть ветра измеряется на высoте 10 м (на урoвне рoста челoвека скoрoсть ветра ниже в 1.5-2 раза). Если метеoстанция нахoдится в гoрoде или в лесу, тo скoрoсть ветра занижена на 2-4 м/с пo сравнению с oткрытым местoм. Скoрoсть ветра над акватoриями крупных рек и oзёр, а также на вершинах хoлмoв на 2-5 м/с выше, чем в oбычных услoвиях.
Атмoсфернoе давление в разных тoчках местнoсти мoжет значительнo oтличаться oт давления на метеoстанции, в зависимoсти oт услoвий рельефа (при пoдъёме на 10 м давление пoнижается примернo на 1 мм рт.ст.).